Flag for U.S.A. Weather past 2 weeks in Abilene, Texas, U.S.A.

Now
86 °F

Clear.


Feels Like: 85 °F
Forecast: 75 / 94 °F
Wind: 14 mph from Southeast

Location: Abilene Regional Airport

Current Time: Aug 28, 2015 at 10:44:53 PM

Latest Report: Aug 28, 2015 at 9:52 PM


Visibility: 10 mi

Pressure: 29.88 "Hg (28.17 "Hg at 524m altitude)

Humidity: 39%

Dew point: 58 °F

Location of AbileneLocation

Historic Weather in Abilene — Graph

°F

Abilene temperature yesterday

Maximum temperature yesterday: 97 °F (at 4:52 PM)
Minimum temperature yesterday: 71 °F (at 6:52 AM)
Average temperature yesterday: 84 °F

Past Weeks' High & Low Weather Summary

 TemperatureHumidityPressure
High101 °F (Aug 14, 2:52 PM)93% (Aug 21, 3:52 AM)30.18 "Hg (Aug 21, 3:52 AM)
Low62 °F (Aug 20, 12:52 AM)16% (Aug 28, 4:52 PM)29.62 "Hg (Aug 18, 6:52 PM)
Average82 °F56%29.92 "Hg
* Reported Aug 13 8:52 PM — Aug 28 8:52 PM, Abilene, Weather by CustomWeather, © 2015

Note: Actual official high and low records may vary slightly from our data, if they occured in-between our weather recording intervals... More about our weather records

Advertising

Abilene weather history for previous 24 hours

 ConditionsComfort  
Time TempWeatherWind HumidityBarometerVisibility
8:52 PM
Fri, Aug 28
89 °FSunny.13 mph34%29.85 "Hg10 mi
7:52 PM92 °FSunny.13 mph24%29.83 "Hg10 mi
6:52 PM96 °FSunny.17 mph20%29.83 "Hg10 mi
5:52 PM98 °FSunny.15 mph20%29.83 "Hg10 mi
4:52 PM99 °FSunny.10 mph16%29.83 "Hg10 mi
3:52 PM98 °FSunny.10 mph20%29.86 "Hg10 mi
2:52 PM97 °FSunny.12 mph23%29.88 "Hg10 mi
1:52 PM94 °FSunny.15 mph27%29.90 "Hg10 mi
12:52 PM92 °FSunny.13 mph32%29.93 "Hg10 mi
11:52 AM89 °FHot.13 mph35%29.95 "Hg10 mi
10:52 AM86 °FSunny.13 mph39%29.95 "Hg10 mi
9:52 AM81 °FSunny.14 mph47%29.94 "Hg10 mi
8:52 AM77 °FSunny.12 mph54%29.94 "Hg10 mi
7:52 AM75 °FClear.12 mph60%29.93 "Hg10 mi
6:52 AM73 °FClear.9 mph64%29.91 "Hg10 mi
5:52 AM72 °FClear.8 mph66%29.91 "Hg10 mi
4:52 AM73 °FClear.9 mph64%29.90 "Hg10 mi
3:52 AM76 °FClear.9 mph58%29.89 "Hg10 mi
2:52 AM77 °FClear.10 mph56%29.90 "Hg10 mi
1:52 AM77 °FClear.13 mph58%29.91 "Hg10 mi
12:52 AM79 °FClear.13 mph52%29.91 "Hg10 mi
11:52 PM
Thu, Aug 27
80 °FClear.12 mph52%29.93 "Hg10 mi
10:52 PM82 °FClear.14 mph53%29.93 "Hg10 mi
Weather by CustomWeather, © 2015

See weather overviewHow to use our weather pages